Location: Banios
(43.0451°N, 0.2335°E)
Time: 07:40:47
(UTC+00:00)

A-11 Canister half - Pass Details

Date: 15 May 2021
Orbit: 1527 x 1681 km, 47.3° (Epoch: 22 June)

Event Time Altitude Azimuth Distance (km) Brightness Sun altitude
Rises 12:31:41 0° 286° (WNW) 4,791 11.6 64.8°
Reaches altitude 10° 12:34:45 10° 288° (WNW) 3,826 11.3 64.6°
Maximum altitude 12:44:36 78° 15° (NNE) 1,678 10.3 63.8°
Drops below altitude 10° 12:54:43 10° 103° (ESE) 3,927 11.2 62.9°
Sets 12:57:54 0° 104° (ESE) 4,922 11.6 62.6°
